STARLINK-31654, 59858

Orbit data source: Space-Track

STARLINK-31654, 59858 is a payload satellite owned by SpaceX/Seattle (US) in LEO that was launched on Fri, 24 May 2024 UTC via an FALCON 9 launch vehicle from the Air Force Eastern Test Range (AFETR). Payload-class satellites include a variety of spacecraft equipped with specific instruments for various scientific and technological missions. These include communications satellites like Starlink; space stations such as the ISS; scientific satellites like the Hubble; Earth observation satellites from companies like Planet Labs, Umbra, and HawkEye 360; GPS; miniature CubeSats for education and research; and military/defense satellites.

Loading next visibility...
Identifier
59858, 2024-098A
Orbit
LEO
Country
Flag of USUS
Related business
Manufacturer
SpaceX/Seattle
Mission
Operational Commercial Communications
Bus & Motor
STARLINK V2M, Unknown motor
Mass
730 kg wet, ~700 kg dry
Launch date (UTC)
2024-05-24 (2 years ago)
Launch vehicle
FALCON 9
Launch site
Air Force Eastern Test Range (AFETR)
Object type
Payload
Rocket body
Debris
Shape & HBR
Box + 2 Pan, 17.7 m
Radar Cross Section
33.884 m², Large (>1 m²)

Expand to show TLE details & history
Last TLE update: 2 days ago

TLE from 2 days ago
0 STARLINK-31654
1 59858U 24098A   26171.35690264 -.00000691  00000-0 -15616-4 0  9991
2 59858  43.0011  50.7615 0000459 319.4003  40.6814 15.27571712117626
Epoch: 2026-06-20T08:33Z
TLE epoch observation values (Epoch: 2026-06-20T08:33:56.388Z)
Latitude
-0.00003°
Longitude
13.70383°
Altitude
482.611 km
Speed
7.626 km/s
True Right ascension
03h 23m 02s
True Declination
0° 00' 00"
Sunlit
Object was in daylight at epoch
Visualization orbit readout
Latitude
Unknown
Longitude
Unknown
Altitude
Unknown
Speed
Unknown
Apparent Right ascension
Unknown
Apparent Declination
Unknown
Sunlit
N/A
Visualization observer readout
Local Sidereal Time
21:29:23
Azimuth
Unknown
Elevation
Unknown
Doppler factor
Unknown
Orbital elements
Apogee altitude
485.334 km
Perigee altitude
484.704 km
Semi-major axis
6,863.156 km
Eccentricity
0.00005
Inclination
43.0011°
RAAN
50.7615°
Arg. of periapsis
319.4003°
True anomaly
40.68483°
Mean anomaly
40.6814°
Eccentric anomaly
40.68311°
Mean motion
3.81731 °/min
Orbital period
94.31 mins
BSTAR
-0.000015616
Loading maneuver chart data...
Computing Atmospheric mass density...
Loading historical data...
Loading historical data...
Loading historical data...
Loading historical data...
Loading historical data...
Loading historical data...
Loading historical data...

Documentation

Showing up to 5 results
|